Theta_e
324 322 322 315 303 301 297 301 306 307 308 314 314 314 314 316 312 306 331 336 337 339 344 344 343 345 348 347 346 346 347 347 345 345 344 343 342 341 339 339 340 336 336 337 337 335 335 336 336
318 319 318 309 299 294 296 304 304 308 315 318 319 319 317 316 324 326 329 335 337 341 343 343 342 345 347 346 346 345 346 345 343 343 344 341 340 339 338 337 339 335 334 335 335 334 335 336 336
314 318 312 305 298 296 299 305 307 308 316 314 319 321 320 318 324 328 333 336 338 341 343 343 343 347 346 345 344 344 343 343 341 342 342 340 338 338 341 340 339 337 334 334 335 334 334 334 335
310 313 307 301 298 302 304 305 308 311 314 316 319 316 322 325 328 332 335 337 337 340 343 341 344 346 346 344 343 342 341 339 339 338 338 339 337 338 339 340 340 335 335 333 332 332 332 331 331
309 308 299 296 297 302 304 305 306 311 312 314 316 315 318 324 330 333 336 337 336 339 342 343 343 344 345 344 343 342 341 339 340 339 340 341 340 339 337 335 333 332 333 332 330 329 329 328 328
302 305 297 294 296 301 304 306 306 308 312 316 316 316 318 325 328 333 336 335 338 339 341 342 337 339 342 343 342 341 340 340 339 339 339 338 338 337 336 335 334 333 332 332 330 329 328 327 327
301 299 296 296 297 300 304 308 307 308 310 314 319 314 318 321 328 333 333 335 335 338 340 341 343 339 335 338 338 338 339 338 339 338 337 335 333 332 334 331 332 331 331 331 330 328 327 327 328
301 300 296 296 296 299 305 307 308 310 310 321 322 314 317 320 329 331 332 331 332 335 337 338 340 341 341 340 332 333 335 335 337 334 331 329 329 329 329 328 330 331 332 330 328 326 326 327 328
305 296 293 296 296 300 304 305 307 309 313 317 320 320 322 325 329 328 327 327 329 331 333 336 337 339 339 339 333 329 330 331 330 329 326 325 329 330 329 326 330 333 332 329 328 327 327 328 325
300 296 296 300 300 302 302 302 303 308 311 314 318 317 323 325 325 323 323 322 325 328 330 332 335 336 337 337 335 335 333 333 333 330 329 328 328 329 327 323 325 329 328 330 331 331 330 326 327
298 297 301 301 302 302 301 300 303 305 305 311 313 315 319 322 323 322 322 324 325 327 331 332 332 335 336 336 334 333 332 332 329 329 328 327 326 327 327 326 326 328 322 328 329 329 328 326 325
296 298 302 304 302 300 299 302 301 304 308 309 311 317 320 320 321 322 322 324 326 327 329 332 333 333 335 335 333 331 330 329 327 327 326 324 324 324 325 325 325 325 326 325 326 326 324 323 323
301 301 300 302 302 301 302 300 301 301 304 311 314 315 319 320 322 322 324 325 327 325 329 331 332 332 333 333 333 331 329 327 327 327 325 324 323 323 323 323 323 323 323 323 323 323 323 323 322
295 304 304 301 301 302 300 300 300 303 306 317 313 314 316 320 321 322 323 324 325 327 328 330 331 331 332 332 331 331 330 328 326 326 326 324 324 323 323 323 322 323 323 324 323 323 323 323 322
294 299 301 304 302 301 302 298 297 303 309 310 317 317 314 316 319 321 324 325 326 328 329 329 330 331 330 330 331 331 330 329 327 326 326 326 325 324 324 323 323 324 324 323 323 323 323 322 322
293 296 292 298 302 303 301 296 301 303 302 304 310 317 318 316 315 320 324 326 328 329 328 329 330 330 329 330 331 330 330 330 329 328 327 326 326 325 324 324 323 325 324 323 323 323 322 322 322
292 284 289 293 302 302 299 295 302 304 300 301 304 312 318 319 320 317 320 326 328 329 329 328 331 330 329 331 330 330 330 330 329 329 328 327 327 327 326 325 325 325 324 323 323 322 321 322 322
283 286 287 289 296 299 297 296 301 303 299 300 301 306 313 318 321 323 321 323 327 329 330 331 330 331 330 330 329 329 328 328 328 328 328 328 328 327 326 326 325 325 324 323 323 322 323 322 323
286 284 283 286 291 292 295 297 300 303 299 297 297 300 302 313 321 325 325 322 323 326 327 328 329 330 330 328 326 326 326 327 327 328 328 327 327 326 325 325 324 325 324 325 325 324 323 323 323
288 284 283 286 290 290 291 293 297 301 302 301 299 299 300 301 312 320 323 325 322 323 325 327 328 329 329 329 329 329 328 328 330 330 329 329 328 327 326 326 326 326 325 325 325 324 322 321 322
283 284 285 284 288 288 287 287 291 298 301 303 303 302 301 302 302 310 320 323 326 323 324 325 327 328 329 330 329 327 329 328 328 329 330 330 330 330 329 329 328 327 326 326 326 324 323 322 321
278 287 288 287 284 279 287 279 287 294 297 300 303 303 303 303 303 303 309 319 323 325 327 326 326 328 329 329 328 327 327 326 327 328 329 328 329 328 328 328 328 328 327 326 326 324 324 323 321
281 286 286 286 284 282 283 280 283 291 291 296 301 304 302 305 305 303 302 309 319 324 326 326 326 327 328 328 329 328 328 328 327 327 327 328 328 328 328 328 327 326 326 326 325 325 324 325 324
286 284 282 284 284 277 281 280 280 286 290 294 299 303 305 304 304 303 306 309 311 315 321 324 323 323 326 327 328 329 328 327 327 327 327 328 328 329 329 328 328 329 328 328 327 326 326 326 324
283 277 270 271 273 272 281 279 282 288 290 294 296 299 304 306 305 301 303 305 307 312 315 316 318 317 322 323 324 325 326 327 326 324 324 323 324 318 315 319 322 324 326 327 327 326 325 325 325
279 278 271 266 269 273 281 277 281 289 292 294 292 293 299 299 298 300 302 303 304 308 311 312 312 312 312 311 312 313 314 313 312 312 312 309 309 308 308 309 310 310 312 313 315 319 320 321 322
276 277 281 276 276 274 276 280 285 287 289 291 291 292 293 293 296 298 298 299 300 304 306 308 308 308 307 307 306 306 306 304 302 302 302 301 302 303 303 304 305 305 305 306 309 310 311 312 314
279 281 274 276 267 268 275 276 278 282 286 289 290 292 291 294 294 294 295 294 295 297 299 302 304 305 305 303 301 299 298 298 297 297 297 297 298 298 299 299 300 300 300 301 302 303 303 304 305
279 277 275 279 276 270 271 274 281 283 285 288 289 291 292 293 292 292 292 292 292 294 295 296 297 298 299 299 298 296 295 295 295 294 294 294 295 295 295 295 295 295 295 296 296 297 297 297 297
281 279 279 271 271 277 275 275 285 285 285 287 288 289 289 290 290 289 289 290 291 291 292 292 292 292 292 292 292 291 291 291 291 291 291 292 291 292 292 292 292 292 292 292 292 292 292 292 292
Wind_Speed
6 2 2 4 4 3 2 4 2 3 1 1 5 5 4 3 3 1 2 5 13 14 14 16 17 16 16 16 16 15 16 16 16 16 16 16 15 14 16 14 15 15 14 15 15 14 13 12 12
2 1 4 3 4 1 3 2 3 3 2 5 4 3 3 2 2 6 8 7 16 14 13 14 15 17 17 16 15 14 15 15 15 14 15 15 13 13 14 14 13 15 13 13 13 13 12 13 12
2 3 4 4 3 3 3 3 3 3 5 0 2 3 3 3 1 11 4 14 15 12 12 12 14 17 17 15 14 14 13 13 14 13 13 14 13 12 11 11 12 15 13 12 12 12 12 12 12
3 4 4 4 4 5 3 3 3 1 2 2 2 5 2 2 7 6 14 16 15 11 12 12 15 17 17 16 15 14 13 12 12 12 11 12 13 11 7 11 12 13 12 11 11 11 11 11 11
4 3 3 2 4 4 4 4 3 2 2 3 2 3 2 3 5 14 15 14 16 11 12 13 13 16 16 15 15 14 13 12 11 11 12 11 15 12 9 10 9 10 10 9 10 10 10 10 10
4 3 3 3 4 4 5 3 2 2 3 4 4 5 2 2 8 13 15 14 14 13 12 11 11 12 14 14 13 13 13 12 12 9 12 9 11 11 11 10 9 9 8 8 8 8 8 8 8
6 4 4 3 3 4 4 1 2 1 2 3 7 6 2 4 7 10 15 13 14 14 10 10 11 11 9 10 11 12 12 11 10 9 11 9 9 10 9 8 8 7 7 6 6 6 5 5 5
5 4 5 4 4 5 2 2 2 4 3 1 1 4 4 6 12 10 13 13 14 14 11 10 10 10 9 9 9 10 10 10 10 10 9 8 8 9 9 7 6 7 6 4 3 2 3 4 5
3 4 4 6 7 5 1 0 0 1 3 1 2 2 2 17 15 12 11 12 12 11 11 10 10 10 9 9 9 10 11 10 10 9 9 7 4 4 6 7 8 8 6 4 3 1 1 3 4
3 5 10 7 5 4 1 2 2 1 1 3 2 5 11 16 18 16 16 15 16 15 13 12 11 11 10 8 9 9 7 7 7 7 8 6 6 5 4 4 5 5 5 4 3 2 1 2 2
4 6 6 5 5 2 2 2 2 3 2 5 5 6 12 13 15 16 16 16 15 15 10 11 11 11 10 8 6 4 4 4 5 7 6 6 4 4 4 3 2 2 1 2 2 2 2 4 3
3 5 5 5 7 5 3 2 2 4 3 3 3 8 14 17 18 17 17 15 16 15 13 10 10 8 10 6 6 6 5 5 5 6 7 5 3 3 3 3 3 3 2 3 3 2 4 5 5
3 3 4 4 6 6 2 5 4 5 5 2 1 10 15 15 13 10 11 10 12 16 13 13 11 9 9 8 6 6 6 6 6 6 6 5 5 4 3 3 3 3 3 3 4 4 4 4 5
5 5 5 3 3 2 5 4 5 4 1 2 5 8 10 14 13 8 12 13 14 14 16 13 12 11 11 10 9 8 6 7 6 5 7 8 6 5 4 4 4 4 4 4 4 4 4 5 5
5 6 4 5 4 4 3 8 7 7 4 4 5 6 7 11 11 15 14 14 14 13 14 14 14 11 14 13 10 7 7 6 6 6 7 8 7 6 6 5 5 5 5 5 4 5 5 5 5
2 1 4 3 9 5 9 16 13 10 7 10 8 7 8 12 13 14 12 12 12 12 15 16 13 12 14 12 9 7 7 7 7 6 6 8 8 8 7 6 6 5 4 4 4 4 5 5 5
3 3 5 7 6 5 11 4 11 8 10 12 9 8 9 9 10 13 15 15 13 14 15 15 13 14 15 10 8 8 9 7 6 6 6 9 9 9 7 6 6 5 5 4 4 4 4 5 6
3 4 3 4 2 4 9 11 10 3 11 16 13 12 10 10 17 13 14 14 14 14 14 15 14 15 14 9 8 6 6 6 5 6 7 9 8 9 8 7 7 6 5 5 5 6 4 5 6
4 3 5 4 12 7 9 16 17 13 5 9 8 9 11 13 12 10 13 13 12 13 14 16 14 13 10 8 8 6 7 7 7 7 10 9 8 8 7 5 6 7 7 8 7 5 6 5 4
7 11 9 6 9 3 9 15 12 16 12 12 15 13 11 7 6 7 11 13 15 15 15 14 15 14 12 9 8 4 7 6 7 7 8 10 9 9 7 7 7 7 6 7 7 7 3 3 3
9 8 7 9 10 7 7 18 17 9 14 12 13 12 12 12 9 7 10 15 13 15 17 15 15 15 14 12 7 4 4 2 5 5 6 8 11 11 11 10 8 8 7 7 8 7 8 5 3
6 4 2 8 5 7 3 11 11 22 21 17 18 14 15 13 9 7 10 10 14 18 13 15 14 15 13 14 10 12 9 7 6 5 5 5 5 5 6 7 8 8 6 7 7 5 7 4 6
4 2 3 6 8 4 15 8 5 10 18 20 19 17 15 17 15 14 11 12 11 9 12 12 12 12 13 13 11 10 9 5 3 2 5 4 4 5 5 6 6 5 4 6 7 6 7 6 6
4 2 4 1 4 10 14 11 6 7 9 8 17 19 18 17 13 10 6 5 4 3 6 9 12 11 11 12 12 13 10 6 4 4 4 3 2 1 1 3 4 5 5 6 6 7 8 6 7
5 4 2 4 7 16 11 12 22 2 2 5 8 10 16 16 16 10 9 7 5 6 7 8 11 7 8 9 5 5 6 6 5 3 2 2 2 4 5 6 6 4 4 3 4 4 5 4 4
9 8 5 9 6 5 8 13 9 6 12 12 4 5 5 6 6 8 8 7 6 6 7 9 9 8 8 10 9 7 7 6 5 5 4 4 4 4 6 6 6 7 7 7 6 4 4 6 4
4 9 8 7 6 4 5 11 9 1 4 3 2 3 4 4 4 7 6 5 4 6 6 10 11 9 10 11 10 9 9 8 6 6 6 5 5 4 6 7 7 9 8 7 7 5 6 6 6
6 1 4 4 6 6 5 10 11 2 7 4 6 5 1 6 6 6 8 8 8 8 8 10 10 7 8 11 14 6 12 9 8 6 6 7 6 6 7 6 7 7 7 8 7 6 7 7 6
5 5 5 3 8 4 3 6 2 6 5 8 7 4 4 8 9 8 7 8 9 11 9 11 13 10 8 8 10 9 10 10 7 7 5 7 7 6 6 7 8 6 7 8 7 6 6 6 7
6 9 10 7 8 5 13 13 2 3 7 6 2 4 5 4 8 10 9 8 8 10 10 10 11 12 9 9 9 10 10 9 9 7 7 8 7 8 6 8 8 7 8 7 7 7 7 7 8
Wind_Direction
343 29 84 46 61 57 256 256 279 304 279 266 126 142 170 88 161 200 166 145 145 149 148 149 143 141 131 123 122 122 123 120 116 105 105 102 102 102 101 98 101 94 95 94 93 83 73 67 80
336 252 49 85 86 68 264 242 234 241 148 131 104 105 102 127 109 122 137 158 150 146 149 150 143 143 135 131 126 122 118 118 121 119 113 110 108 108 110 104 104 101 97 96 94 87 75 68 83
185 15 82 94 113 192 219 210 273 278 154 144 100 43 114 130 91 155 139 147 142 140 146 148 144 142 137 136 131 126 125 126 129 128 123 118 113 111 109 125 122 110 99 96 92 87 78 73 72
49 16 46 97 209 253 212 286 314 121 200 74 105 82 72 17 160 169 146 142 137 135 142 147 146 145 143 140 138 134 132 132 134 132 132 131 123 114 96 107 99 90 95 89 85 80 77 73 70
31 58 70 97 247 264 263 264 321 191 184 136 104 178 90 38 100 135 142 143 141 138 143 152 148 148 149 147 145 142 140 137 138 143 137 148 127 119 101 117 115 97 93 89 85 78 71 69 67
49 94 85 215 241 262 275 252 256 235 171 156 106 129 143 107 133 149 144 142 146 145 147 157 149 151 154 152 151 145 145 142 139 136 130 110 120 134 120 114 112 107 103 92 82 76 70 64 61
126 102 206 190 244 289 232 249 211 245 207 207 140 131 135 171 161 152 150 140 152 157 152 149 156 156 154 153 152 150 146 146 138 131 128 126 142 142 137 130 127 122 106 88 74 64 58 48 51
114 103 143 226 192 253 243 316 216 176 186 106 219 175 189 175 158 146 150 151 157 163 165 163 161 160 162 161 153 151 148 153 149 142 135 135 144 152 162 151 140 135 123 111 97 73 40 20 17
155 93 188 213 167 233 209 62 211 244 125 351 81 67 324 138 144 144 148 162 162 168 172 166 168 162 167 168 169 163 160 157 149 147 148 145 152 153 148 155 154 148 152 163 170 195 339 10 357
142 164 205 194 193 227 207 156 291 112 126 211 127 52 121 145 159 160 166 173 175 170 174 180 178 177 172 173 173 174 169 169 167 166 163 160 163 172 177 184 181 184 178 195 221 246 314 323 305
182 204 194 209 200 230 218 249 173 149 226 217 188 155 160 160 170 175 178 180 180 177 168 174 182 180 180 178 174 174 170 171 174 174 173 172 171 180 177 181 189 205 228 242 263 278 282 296 308
200 248 204 195 180 145 208 148 208 201 238 125 232 158 167 180 182 179 182 185 176 180 177 169 174 187 186 173 181 179 177 178 181 189 185 173 180 184 190 197 199 214 224 248 250 267 284 289 294
197 250 209 269 177 191 134 224 229 242 249 296 139 160 175 189 193 183 179 180 182 189 181 178 172 181 190 179 178 182 191 189 190 191 193 187 190 196 199 225 227 238 241 242 247 252 271 282 284
321 287 272 250 246 255 186 240 153 254 206 135 168 193 189 184 187 177 176 184 186 187 195 188 182 181 191 190 185 191 192 195 197 198 201 198 199 204 206 221 235 241 233 249 256 260 275 286 288
313 317 327 208 200 227 153 265 213 220 185 206 195 197 204 200 175 196 194 186 188 190 190 195 192 185 191 196 185 186 198 196 200 207 205 208 207 213 218 219 231 240 237 254 259 272 270 277 278
284 145 241 228 152 220 171 250 219 214 185 227 212 201 205 210 211 192 186 198 187 186 201 199 196 189 197 188 183 184 194 202 212 211 210 209 213 214 222 236 237 246 254 253 252 264 280 274 279
281 223 229 313 211 175 197 240 225 201 193 222 220 210 208 218 219 201 190 191 194 193 193 203 191 190 195 190 187 186 191 204 211 209 212 214 217 218 222 235 248 245 247 246 248 260 245 282 285
254 233 261 230 336 241 231 243 271 251 194 219 219 214 205 208 227 203 197 191 187 195 198 194 201 194 186 176 176 181 189 207 202 214 221 222 223 218 217 224 233 225 237 246 240 249 248 261 278
260 273 294 311 305 302 246 243 249 248 234 233 238 233 219 210 229 195 190 185 190 192 196 192 190 192 175 173 173 191 201 205 209 210 213 211 213 213 208 221 226 223 227 241 241 252 260 269 250
278 268 271 283 264 306 294 265 253 246 232 221 224 229 229 229 189 190 192 187 197 194 200 198 193 183 188 182 187 180 183 205 208 205 212 204 196 203 207 211 221 220 229 233 236 228 246 236 201
267 267 265 259 292 306 263 262 248 245 229 232 230 225 224 223 217 204 193 199 195 200 201 199 195 185 186 187 174 138 145 110 171 192 207 211 198 197 199 207 213 219 216 234 230 226 221 254 209
247 188 263 288 229 239 64 285 233 222 228 225 225 218 225 226 235 210 198 203 200 211 200 199 194 188 188 178 185 188 193 189 195 194 198 206 205 213 208 216 212 219 214 224 231 220 230 217 251
228 36 320 274 260 280 246 277 269 178 230 234 222 222 215 223 220 215 205 205 212 211 196 193 185 184 184 182 186 188 204 190 134 146 171 205 205 211 215 211 207 210 212 226 215 220 222 221 236
337 339 339 297 297 241 224 212 205 208 229 219 229 223 216 213 213 209 169 145 165 172 170 171 171 178 173 176 186 192 190 156 153 172 191 196 218 240 249 226 220 223 220 232 229 226 227 222 227
224 126 264 202 209 238 167 201 239 253 344 195 251 240 223 209 208 182 173 174 169 173 152 145 153 142 146 147 159 170 166 139 133 96 87 69 43 50 24 22 23 20 356 307 270 248 246 228 235
191 194 183 194 203 264 131 227 258 242 271 238 207 300 239 190 177 180 172 157 158 160 140 133 133 131 110 101 97 81 79 80 74 70 83 74 67 50 33 32 31 31 28 14 5 25 20 9 342
226 218 250 322 249 252 239 267 295 10 313 344 345 30 256 298 188 156 121 108 108 119 113 123 118 120 115 111 101 93 82 76 77 74 72 82 72 72 64 54 55 44 32 25 17 23 16 357 356
219 182 206 212 230 240 241 249 235 247 242 262 250 194 130 97 74 78 94 97 87 79 93 95 97 112 127 127 117 100 101 103 83 65 71 73 59 55 64 60 63 63 47 34 29 23 14 10 10
186 226 240 285 245 264 299 251 274 255 266 235 258 164 171 126 113 99 94 92 97 91 82 96 98 94 87 94 93 105 111 98 99 101 88 81 73 58 57 65 62 47 48 36 34 22 13 16 9
254 215 209 222 239 244 247 259 144 314 295 284 77 78 58 78 115 111 99 95 94 96 95 91 89 93 81 82 88 93 89 84 68 71 82 69 65 52 44 59 60 48 45 38 37 24 13 14 5